When you browse on this site, cookies collect data to enhance your experience and personalize the content and advertising you see.
Visit our Privacy Policy to learn more. By continuing to use the site, you agree to this use of cookies and data.
  • In Österreich
  • Länderverzeichnis
  • Für 7 Tage
  • Wassertemperatur
  • Satellitenkarten
  • Wetterkarte
  • News
  • Widgets
  • user-avatar
    Anmelden

    Stündliche Wetter Salta

    Heute, 18 Januar, Freitag

    Zeit Temperatur Niederschläge Wind Luftdruck Luftfeuchtigkeit
    00:00 +17°C° 0.3 mm 2 m/S 653 mmHg 97%
    01:00 +18°C° 0.3 mm 1 m/S 653 mmHg 97%
    02:00 +16°C° 0 mm 1 m/S 653 mmHg 97%
    03:00 +16°C° 0.1 mm 1 m/S 653 mmHg 97%
    04:00 +16°C° 0.1 mm 1 m/S 653 mmHg 97%
    05:00 +16°C° 0.1 mm 1 m/S 653 mmHg 97%
    06:00 +16°C° 0.1 mm 1 m/S 653 mmHg 97%
    07:00 +15°C° 0.1 mm 1 m/S 654 mmHg 96%
    08:00 +15°C° 0.1 mm 1 m/S 654 mmHg 96%
    09:00 +16°C° 0.1 mm 1 m/S 655 mmHg 92%
    10:00 +18°C° 0.1 mm 1 m/S 655 mmHg 89%
    11:00 +18°C° 0.1 mm 1 m/S 655 mmHg 85%
    12:00 +18°C° 0 mm 2 m/S 655 mmHg 79%
    13:00 +20°C° 0 mm 2 m/S 654 mmHg 73%
    14:00 +21°C° 0 mm 2 m/S 654 mmHg 66%
    15:00 +21°C° 0 mm 2 m/S 654 mmHg 66%
    16:00 +21°C° 0 mm 2 m/S 653 mmHg 67%
    17:00 +21°C° 0 mm 2 m/S 653 mmHg 67%
    18:00 +21°C° 0 mm 1 m/S 653 mmHg 72%
    19:00 +20°C° 0 mm 1 m/S 653 mmHg 77%
    20:00 +19°C° 0 mm 1 m/S 653 mmHg 81%
    21:00 +18°C° 0 mm 1 m/S 653 mmHg 84%
    22:00 +16°C° 0 mm 0 m/S 654 mmHg 86%
    23:00 +15°C° 0 mm 0 m/S 654 mmHg 89%

    Morgen, 19 Januar, Samstag

    Zeit Temperatur Niederschläge Wind Luftdruck Luftfeuchtigkeit
    00:00 +15°C° 0 mm 0 m/S 654 mmHg 90%
    01:00 +15°C° 0 mm 0 m/S 653 mmHg 92%
    02:00 +14°C° 0 mm 0 m/S 653 mmHg 94%
    03:00 +14°C° 0 mm 0 m/S 653 mmHg 94%
    04:00 +14°C° 0 mm 0 m/S 653 mmHg 94%
    05:00 +14°C° 0 mm 0 m/S 653 mmHg 94%
    06:00 +18°C° 0 mm 1 m/S 654 mmHg 88%
    07:00 +19°C° 0 mm 1 m/S 654 mmHg 82%
    08:00 +20°C° 0 mm 1 m/S 655 mmHg 76%
    09:00 +20°C° 0 mm 2 m/S 655 mmHg 70%
    10:00 +23°C° 0 mm 2 m/S 656 mmHg 65%
    11:00 +25°C° 0 mm 2 m/S 656 mmHg 59%
    12:00 +24°C° 0 mm 2 m/S 655 mmHg 60%
    13:00 +24°C° 0 mm 2 m/S 655 mmHg 61%
    14:00 +24°C° 0 mm 2 m/S 654 mmHg 62%
    15:00 +24°C° 0 mm 2 m/S 653 mmHg 62%
    16:00 +24°C° 0 mm 2 m/S 653 mmHg 63%
    17:00 +24°C° 0 mm 2 m/S 652 mmHg 63%
    18:00 +23°C° 0 mm 2 m/S 652 mmHg 71%
    19:00 +21°C° 0 mm 1 m/S 652 mmHg 78%
    20:00 +20°C° 0 mm 1 m/S 652 mmHg 85%
    21:00 +20°C° 0 mm 1 m/S 652 mmHg 87%
    22:00 +17°C° 0 mm 0 m/S 653 mmHg 89%
    23:00 +17°C° 0 mm 0 m/S 653 mmHg 91%

    übermorgen, 20 Januar, Sonntag

    Zeit Temperatur Niederschläge Wind Luftdruck Luftfeuchtigkeit
    00:00 +16°C° 0 mm 0 m/S 653 mmHg 92%
    01:00 +16°C° 0 mm 0 m/S 652 mmHg 92%
    02:00 +16°C° 0 mm 0 m/S 652 mmHg 93%
    03:00 +16°C° 0 mm 0 m/S 651 mmHg 93%
    04:00 +16°C° 0 mm 0 m/S 651 mmHg 92%
    05:00 +16°C° 0 mm 1 m/S 651 mmHg 92%
    06:00 +19°C° 0 mm 1 m/S 651 mmHg 87%
    07:00 +20°C° 0 mm 1 m/S 652 mmHg 83%
    08:00 +21°C° 0 mm 1 m/S 652 mmHg 78%
    09:00 +23°C° 0 mm 2 m/S 653 mmHg 72%
    10:00 +24°C° 0 mm 2 m/S 653 mmHg 67%
    11:00 +26°C° 0 mm 3 m/S 653 mmHg 62%
    12:00 +27°C° 0 mm 3 m/S 652 mmHg 57%
    13:00 +29°C° 0 mm 3 m/S 652 mmHg 53%
    14:00 +30°C° 0 mm 3 m/S 651 mmHg 48%
    15:00 +30°C° 0 mm 3 m/S 651 mmHg 48%
    16:00 +30°C° 0 mm 3 m/S 650 mmHg 48%
    17:00 +29°C° 0 mm 3 m/S 650 mmHg 48%
    18:00 +27°C° 0 mm 2 m/S 649 mmHg 57%
    19:00 +24°C° 0 mm 1 m/S 649 mmHg 66%
    20:00 +22°C° 0 mm 1 m/S 649 mmHg 75%
    21:00 +21°C° 0 mm 1 m/S 649 mmHg 78%
    22:00 +19°C° 0 mm 0 m/S 650 mmHg 81%
    23:00 +18°C° 0 mm 0 m/S 650 mmHg 84%

    21 Januar, Montag

    Zeit Temperatur Niederschläge Wind Luftdruck Luftfeuchtigkeit
    00:00 +18°C° 0 mm 0 m/S 650 mmHg 85%
    01:00 +18°C° 0 mm 0 m/S 649 mmHg 86%
    02:00 +18°C° 0 mm 0 m/S 649 mmHg 88%
    03:00 +17°C° 0 mm 0 m/S 649 mmHg 88%
    04:00 +17°C° 0 mm 0 m/S 649 mmHg 89%
    05:00 +19°C° 0 mm 1 m/S 649 mmHg 89%
    06:00 +21°C° 0 mm 1 m/S 650 mmHg 82%
    07:00 +23°C° 0 mm 1 m/S 651 mmHg 74%
    08:00 +25°C° 0 mm 1 m/S 652 mmHg 66%
    09:00 +26°C° 0 mm 2 m/S 653 mmHg 60%
    10:00 +28°C° 0 mm 2 m/S 653 mmHg 54%
    11:00 +30°C° 0 mm 2 m/S 653 mmHg 49%
    12:00 +31°C° 0 mm 2 m/S 653 mmHg 46%
    13:00 +31°C° 0 mm 2 m/S 653 mmHg 44%
    14:00 +32°C° 0 mm 2 m/S 653 mmHg 42%
    15:00 +32°C° 0 mm 2 m/S 652 mmHg 42%
    16:00 +31°C° 0 mm 2 m/S 652 mmHg 43%
    17:00 +31°C° 0 mm 2 m/S 651 mmHg 44%
    18:00 +29°C° 0 mm 2 m/S 651 mmHg 51%
    19:00 +27°C° 0 mm 1 m/S 651 mmHg 58%
    20:00 +25°C° 0 mm 1 m/S 652 mmHg 66%
    21:00 +24°C° 0 mm 1 m/S 652 mmHg 67%
    22:00 +24°C° 0 mm 1 m/S 652 mmHg 67%
    23:00 +23°C° 0 mm 1 m/S 653 mmHg 68%

    22 Januar, Dienstag

    Zeit Temperatur Niederschläge Wind Luftdruck Luftfeuchtigkeit
    00:00 +23°C° 0 mm 1 m/S 652 mmHg 68%
    01:00 +23°C° 0 mm 1 m/S 652 mmHg 68%
    02:00 +23°C° 0 mm 1 m/S 651 mmHg 67%
    03:00 +23°C° 0 mm 1 m/S 651 mmHg 67%
    04:00 +23°C° 0 mm 1 m/S 650 mmHg 67%
    05:00 +21°C° 0 mm 0 m/S 650 mmHg 66%
    06:00 +24°C° 0 mm 1 m/S 650 mmHg 64%
    07:00 +25°C° 0 mm 1 m/S 651 mmHg 62%
    08:00 +26°C° 0 mm 1 m/S 652 mmHg 60%
    09:00 +28°C° 0 mm 2 m/S 652 mmHg 55%
    10:00 +29°C° 0 mm 2 m/S 652 mmHg 50%
    11:00 +31°C° 0 mm 3 m/S 652 mmHg 45%
    12:00 +33°C° 0 mm 3 m/S 652 mmHg 43%
    13:00 +34°C° 0 mm 3 m/S 651 mmHg 41%
    14:00 +35°C° 0 mm 4 m/S 651 mmHg 40%
    15:00 +34°C° 0.1 mm 3 m/S 650 mmHg 42%
    16:00 +33°C° 0.1 mm 3 m/S 650 mmHg 45%
    17:00 +31°C° 0.1 mm 3 m/S 649 mmHg 47%
    18:00 +30°C° 0.1 mm 2 m/S 649 mmHg 52%
    19:00 +28°C° 0.1 mm 2 m/S 649 mmHg 57%
    20:00 +26°C° 0.1 mm 1 m/S 650 mmHg 62%
    21:00 +26°C° 0.1 mm 1 m/S 650 mmHg 63%
    22:00 +25°C° 0.1 mm 1 m/S 651 mmHg 63%
    23:00 +25°C° 0.1 mm 1 m/S 651 mmHg 64%

    23 Januar, Mittwoch

    Zeit Temperatur Niederschläge Wind Luftdruck Luftfeuchtigkeit
    00:00 +25°C° 0.1 mm 1 m/S 651 mmHg 64%
    01:00 +24°C° 0.1 mm 1 m/S 650 mmHg 65%
    02:00 +24°C° 0.1 mm 1 m/S 650 mmHg 65%
    03:00 +24°C° 0 mm 1 m/S 650 mmHg 66%
    04:00 +24°C° 0 mm 1 m/S 650 mmHg 66%
    05:00 +23°C° 0 mm 1 m/S 650 mmHg 66%
    06:00 +25°C° 0 mm 1 m/S 651 mmHg 61%
    07:00 +27°C° 0 mm 1 m/S 652 mmHg 56%
    08:00 +29°C° 0 mm 1 m/S 653 mmHg 50%
    09:00 +31°C° 0 mm 1 m/S 653 mmHg 45%
    10:00 +33°C° 0 mm 1 m/S 653 mmHg 40%
    11:00 +36°C° 0 mm 2 m/S 654 mmHg 34%
    12:00 +37°C° 0 mm 2 m/S 653 mmHg 33%
    13:00 +37°C° 0 mm 2 m/S 653 mmHg 31%
    14:00 +38°C° 0 mm 3 m/S 653 mmHg 30%
    15:00 +37°C° 0 mm 3 m/S 652 mmHg 31%
    16:00 +37°C° 0 mm 3 m/S 652 mmHg 33%
    17:00 +36°C° 0 mm 3 m/S 651 mmHg 34%
    18:00 +32°C° 0.1 mm 2 m/S 651 mmHg 44%
    19:00 +30°C° 0.1 mm 2 m/S 651 mmHg 53%
    20:00 +27°C° 0.1 mm 1 m/S 650 mmHg 63%
    21:00 +26°C° 0.9 mm 1 m/S 651 mmHg 67%
    22:00 +25°C° 0.9 mm 1 m/S 651 mmHg 72%
    23:00 +25°C° 0.9 mm 1 m/S 651 mmHg 76%
    Mehr zeigen